Weather History for Glendale Luke AFB, AZ

Change the Weather History Date:

Tuesday, April 9, 2013

  Actual Average Record
Temperature  
Mean Temperature 64 °F -  
Max Temperature 72 °F 86 °F 101 °F (1989)
Min Temperature 54 °F 49 °F 36 °F (1953)
Degree Days  
Heating Degree Days 2    
Growing Degree Days 14 (Base 50)    
Moisture  
Dew Point 32 °F    
Average Humidity 35    
Maximum Humidity 63    
Minimum Humidity 16    
Precipitation  
Precipitation 0.00 in - - ()
Sea Level Pressure  
Sea Level Pressure 29.67 in    
Wind  
Wind Speed 11 mph (West)    
Max Wind Speed 24 mph    
Max Gust Speed 26 mph    
Visibility 10 miles    
Events Rain    
Averages and records for this station are not official NWS values.
T = Trace of Precipitation, MM = Missing Value Source: NWS Daily Summary

Daily Weather History Graph

Daily Weather History Graph

Search for Another Location

Airport:

Trip Planner

Search our weather history database for the weather conditions in past years. The results will help you decide how hot, cold, wet, or windy it might be!

Date:

Astronomy

Apr. 09, 2013 Rise Set
Actual Time 6:06 AM MST 6:56 PM MST
Civil Twilight 5:40 AM MST 7:21 PM MST
Nautical Twilight 5:11 AM MST 7:51 PM MST
Astronomical Twilight 4:40 AM MST 8:22 PM MST
Moon 5:29 AM MST (4/9) 6:35 PM MST (4/9)
Length of Visible Light 13h 40m
Length of Day
12h 49m
Waning Crescent, 0% of the Moon is Illuminated
Apr 9
Waning Crescent
Apr 10
New
Apr 18
First Quarter
Apr 25
Full
May 2
Last Quarter

Hourly Weather History & Observations

Time (MST) Temp. Dew Point Humidity Pressure Visibility Wind Dir Wind Speed Gust Speed Precip Events Conditions
12:38 AM 59.0 °F 42.8 °F 55% 29.54 in 10.0 mi SW 4.6 mph - N/A   Mostly Cloudy
12:58 AM 58.6 °F 42.3 °F 55% 29.53 in 10.0 mi WSW 9.2 mph - N/A   Mostly Cloudy
1:26 AM 59.0 °F 37.4 °F 45% 29.55 in 10.0 mi WNW 16.1 mph - N/A Rain Light Rain
1:38 AM 59.0 °F 37.4 °F 45% 29.55 in 10.0 mi West 18.4 mph - N/A   Mostly Cloudy
1:43 AM 59.0 °F 37.4 °F 45% 29.56 in 10.0 mi West 15.0 mph - N/A   Light Drizzle
1:58 AM 58.8 °F 39.2 °F 48% 29.54 in 10.0 mi WNW 18.4 mph 24.2 mph 0.00 in   Light Drizzle
2:01 AM 59.0 °F 39.2 °F 48% 29.56 in 10.0 mi WNW 16.1 mph 24.2 mph N/A   Partly Cloudy
2:19 AM 59.0 °F 39.2 °F 48% 29.56 in 10.0 mi WNW 24.2 mph - N/A   Light Drizzle
2:58 AM 55.8 °F 42.6 °F 61% 29.57 in 10.0 mi West 13.8 mph - 0.00 in Rain Light Rain
3:14 AM 57.2 °F 41.0 °F 55% 29.59 in 10.0 mi WNW 10.4 mph - N/A   Clear
3:58 AM 55.6 °F 42.4 °F 61% 29.58 in 10.0 mi West 4.6 mph - 0.00 in   Scattered Clouds
4:08 AM 55.4 °F 42.8 °F 63% 29.60 in 10.0 mi WNW 5.8 mph - N/A   Mostly Cloudy
4:28 AM 55.4 °F 42.8 °F 63% 29.60 in 10.0 mi WSW 4.6 mph - N/A   Mostly Cloudy
4:58 AM 55.8 °F 41.0 °F 58% 29.59 in 10.0 mi WSW 3.5 mph - N/A   Partly Cloudy
5:58 AM 56.5 °F 39.0 °F 52% 29.61 in 10.0 mi SSW 9.2 mph - N/A   Partly Cloudy
6:58 AM 56.3 °F 37.9 °F 50% 29.65 in 10.0 mi SW 10.4 mph - N/A   Mostly Cloudy
7:58 AM 57.7 °F 35.2 °F 43% 29.68 in 10.0 mi SW 12.7 mph - N/A   Clear
8:58 AM 60.6 °F 32.7 °F 35% 29.70 in 10.0 mi SW 9.2 mph - N/A   Clear
9:58 AM 65.5 °F 28.8 °F 25% 29.70 in 10.0 mi West 9.2 mph - N/A   Partly Cloudy
10:58 AM 66.6 °F 27.1 °F 23% 29.72 in 10.0 mi Variable 2.3 mph - N/A   Clear
11:58 AM 68.2 °F 26.1 °F 21% 29.71 in 10.0 mi WNW 8.1 mph - N/A   Partly Cloudy
12:58 PM 70.7 °F 25.3 °F 18% 29.70 in 10.0 mi SW 11.5 mph 20.7 mph N/A   Partly Cloudy
1:04 PM 71.6 °F 24.8 °F 17% 29.72 in 10.0 mi WSW 15.0 mph 20.7 mph N/A   Partly Cloudy
1:19 PM 71.6 °F 24.8 °F 17% 29.72 in 10.0 mi West 13.8 mph 21.9 mph N/A   Partly Cloudy
1:48 PM 71.6 °F 24.8 °F 17% 29.71 in 10.0 mi West 19.6 mph 26.5 mph N/A   Partly Cloudy
1:58 PM 70.9 °F 24.3 °F 17% 29.70 in 10.0 mi WSW 13.8 mph 26.5 mph N/A   Scattered Clouds
2:06 PM 71.6 °F 23.0 °F 16% 29.72 in 10.0 mi WNW 13.8 mph - N/A   Scattered Clouds
2:10 PM 71.6 °F 23.0 °F 16% 29.72 in 10.0 mi WSW 16.1 mph 23.0 mph N/A   Partly Cloudy
2:58 PM 72.0 °F 23.7 °F 16% 29.69 in 10.0 mi West 8.1 mph - N/A   Mostly Cloudy
3:58 PM 72.3 °F 24.3 °F 17% 29.69 in 10.0 mi West 10.4 mph - N/A   Mostly Cloudy
4:58 PM 72.5 °F 25.2 °F 17% 29.69 in 10.0 mi West 12.7 mph - N/A   Mostly Cloudy
5:58 PM 72.5 °F 26.2 °F 18% 29.71 in 10.0 mi WNW 11.5 mph - N/A   Mostly Cloudy
6:58 PM 69.4 °F 25.3 °F 19% 29.72 in 10.0 mi WNW 15.0 mph - N/A   Scattered Clouds
7:58 PM 66.9 °F 25.3 °F 21% 29.78 in 10.0 mi NW 16.1 mph - N/A   Partly Cloudy
8:58 PM 63.1 °F 27.3 °F 26% 29.82 in 10.0 mi NNW 5.8 mph - N/A   Clear
9:58 PM 60.4 °F 27.5 °F 29% 29.84 in 10.0 mi NW 8.1 mph - N/A   Clear
10:58 PM 57.7 °F 27.5 °F 31% 29.87 in 10.0 mi NW 6.9 mph - N/A   Clear
11:58 PM 54.7 °F 28.8 °F 37% 29.87 in 10.0 mi North 10.4 mph - N/A   Clear